Terug naar catalogus

THOR ABLESTAR DEB

ActiefLEO
NORAD 152·DEBRIS·🇺🇸 United States

Gelanceerd Jun 29, 1961 vanaf Cape Canaveral Space Force Station

Loading…

Volgende Passages (komende 24 uur)

TLE

VersSource: Space-Track

Epoch: Sep 10, 2026, 17:10 UTC

1 00152U 61015AN  26253.71587311 -.00000088  00000-0 -25065-5 0  9993
2 00152  66.5924 101.3890 0145436 140.5269 220.6523 14.11583705338159

Volg THOR ABLESTAR DEB in realtime met AllMySat

Download on the App Store